Lid_Strength_Index
13 16 18 16 16 16 16 16 17 15 13 15 17 17 15 13 14 15 15 15 14 14 11 12 12 12 13 5 3 4 5 7 8 9 9 10 11 11 10 11 10 10 10 9
14 17 14 13 14 15 17 18 18 15 13 14 15 15 13 13 14 14 13 14 15 14 13 13 13 13 9 4 2 4 5 8 8 8 8 9 11 11 12 10 10 10 10 10
14 13 11 13 14 15 16 17 18 18 16 15 16 16 14 13 12 13 13 13 13 13 13 12 13 12 7 4 3 4 6 8 8 9 11 11 11 11 11 11 12 11 10 10
12 10 12 13 14 13 17 14 15 16 17 21 16 21 16 15 13 12 11 11 11 11 11 11 11 12 7 4 3 4 8 8 10 11 10 11 11 12 12 11 12 11 10 11
13 12 12 13 13 11 14 12 14 15 18 20 17 21 18 15 15 13 12 11 10 10 9 10 10 10 8 5 5 6 8 9 12 11 10 10 11 12 12 11 12 11 11 11
11 9 10 11 10 10 10 12 13 13 17 21 18 18 17 15 14 13 12 11 11 10 10 10 10 11 7 7 6 8 9 10 12 11 11 10 12 13 11 12 11 12 12 12
14 12 10 9 11 9 11 14 19 20 20 20 18 17 16 14 13 13 12 12 11 12 12 12 12 11 9 9 9 9 9 11 12 11 11 11 11 11 11 11 11 12 13 13
20 20 14 12 10 13 13 14 18 23 22 20 18 19 17 15 14 13 14 13 13 12 13 12 12 11 10 10 10 9 9 11 12 11 11 10 10 10 10 10 11 12 12 13
20 17 13 11 9 9 13 15 12 17 17 19 17 16 14 13 14 13 13 14 14 14 14 13 12 12 11 11 10 10 10 11 12 11 11 10 10 10 11 11 12 12 13 13
16 21 14 12 10 9 11 10 16 16 21 22 19 18 18 15 15 14 14 14 13 14 14 13 13 12 12 12 12 11 10 11 12 12 12 11 11 11 11 12 13 13 13 13
14 16 16 13 14 15 14 15 13 14 16 20 21 18 13 13 13 14 13 13 12 14 14 13 13 13 12 12 12 12 12 12 12 11 12 12 12 12 12 12 13 13 13 13
14 18 20 17 12 12 11 14 14 20 20 18 17 17 10 11 12 12 12 12 11 11 13 13 13 13 13 13 13 12 12 12 12 12 11 12 12 12 13 13 13 13 13 13
15 20 23 22 18 14 15 14 14 15 16 19 19 18 9 12 12 11 11 11 10 10 12 13 13 12 12 13 13 12 12 12 12 12 12 12 13 13 13 13 13 13 14 14
11 16 19 22 20 17 19 16 15 16 20 19 19 17 13 14 14 13 13 10 9 10 10 12 13 13 12 12 12 12 12 12 12 12 12 12 12 12 13 13 13 13 14 14
16 24 18 18 16 16 17 16 16 16 16 19 18 16 14 14 14 13 13 12 12 12 11 10 10 11 12 12 12 12 12 12 12 12 12 12 12 12 13 13 13 14 14 14
13 19 19 20 16 15 18 16 15 15 15 15 13 14 12 13 12 13 14 14 14 13 12 12 12 11 12 12 12 11 11 11 11 12 12 12 12 13 13 13 14 14 14 14
15 21 23 25 19 23 26 18 14 14 13 14 16 13 12 13 14 14 14 14 13 12 12 13 12 11 11 11 10 11 11 11 12 12 12 12 12 13 13 13 13 14 14 14
20 20 18 24 26 30 17 12 13 11 11 11 12 12 13 13 12 11 11 13 13 13 13 12 12 11 11 10 10 10 11 11 11 12 12 12 12 13 13 13 13 14 14 14
13 16 25 25 29 18 15 13 12 13 13 10 11 11 12 12 13 11 9 10 11 12 11 11 11 11 11 11 10 10 12 12 13 13 13 13 13 13 13 13 13 13 13 13
16 19 17 29 24 25 17 12 10 10 16 10 9 10 12 12 16 14 10 9 9 9 11 11 11 11 11 11 10 11 11 11 12 13 12 12 12 12 12 12 12 12 12 12
27 30 25 26 30 24 14 10 10 18 15 9 9 9 10 12 12 11 10 9 9 9 9 9 10 11 11 11 11 10 10 11 10 10 11 10 11 10 10 10 11 11 12 13
22 25 28 32 34 26 12 12 14 10 9 8 9 9 10 9 10 10 10 10 9 10 10 9 10 10 10 11 12 11 10 9 9 10 9 9 9 10 10 10 11 11 12 13
20 16 20 19 19 11 10 9 8 8 8 8 8 8 9 10 10 10 10 11 10 10 10 10 9 10 9 10 11 12 10 11 10 9 8 9 9 9 10 10 12 13 13 13
15 12 15 14 12 11 9 8 8 7 8 7 7 7 8 9 9 9 9 9 9 9 10 10 10 10 9 9 11 11 10 10 10 10 9 9 10 10 10 10 10 11 12 13
13 14 14 15 11 10 9 8 7 7 7 7 7 7 7 8 7 8 8 8 9 9 9 10 10 10 10 9 10 12 11 10 10 9 9 10 10 10 10 11 11 11 11 11
11 13 14 15 10 10 10 8 7 7 7 7 7 7 7 7 7 7 7 7 7 9 9 9 10 12 11 11 10 11 13 11 10 9 9 10 10 11 10 10 12 9 10 10